Ogden Hill AFB, UT

3:07 AM MDT on June 27, 2017 (GMT -0600)
Hill Air Force Base

Weather History for KHIF - December, 2013

Change the Weather History Date:

Tuesday, December 17, 2013

  Actual Average Record
Temperature  
Mean Temperature 24 °F -  
Max Temperature 31 °F 32 °F 50 °F (1979)
Min Temperature 17 °F 20 °F 8 °F (1996)
Degree Days  
Heating Degree Days 41    
Moisture  
Dew Point 16 °F    
Average Humidity 75    
Maximum Humidity 83    
Minimum Humidity 61    
Precipitation  
Precipitation 0.00 in - - ()
Snow  
Snow 0.00 in - - ()
Snow Depth 4.00 in    
Sea Level Pressure  
Sea Level Pressure 30.50 in    
Wind  
Wind Speed 7 mph (SE)    
Max Wind Speed 16 mph    
Max Gust Speed -    
Visibility 8 miles    
Events Fog    
Averages and records for this station are not official NWS values.
T = Trace of Precipitation, MM = Missing Value Source: NWS Daily Summary

Daily Weather History Graph

Daily Weather History Graph

Search for Another Location

Airport or City:

Trip Planner

Search our weather history database for the weather conditions in past years. The results will help you decide how hot, cold, wet, or windy it might be!

Date:

Astronomy

Dec. 17, 2013 Rise Set
Actual Time 7:47 AM MST 5:00 PM MST
Civil Twilight 7:16 AM MST 5:32 PM MST
Nautical Twilight 6:41 AM MST 6:06 PM MST
Astronomical Twilight 6:08 AM MST 6:40 PM MST
Moon 5:44 PM MST (12/17) 7:46 AM MST (12/17)
Length of Visible Light 10h 15m
Length of Day
9h 13m
Full, 100% of the Moon is Illuminated
Dec 17
Full
Dec 25
Last Quarter
Jan 1
New
Jan 7
First Quarter
Jan 15
Full

Hourly Weather History & Observations

Time (MST) Temp. Windchill Dew Point Humidity Pressure Visibility Wind Dir Wind Speed Gust Speed Precip Events Conditions
12:58 AM 17.6 °F - 12.6 °F 81% 30.61 in 10.0 mi Variable 2.3 mph - N/A   Clear
1:58 AM 20.8 °F 10.4 °F 14.5 °F 77% 30.58 in 10.0 mi ESE 9.2 mph - N/A   Clear
2:23 AM 21.2 °F 13.6 °F 15.8 °F 80% 30.50 in 9.0 mi SSE 5.8 mph - N/A   Clear
2:38 AM 23.0 °F 9.6 °F 15.8 °F 74% 30.50 in 10.0 mi ESE 16.1 mph - N/A   Clear
2:58 AM 20.8 °F 10.4 °F 14.7 °F 77% 30.60 in 10.0 mi ESE 9.2 mph - N/A   Clear
3:58 AM 18.3 °F - 13.5 °F 81% 30.62 in 10.0 mi Calm Calm - N/A   Clear
4:58 AM 19.0 °F 7.5 °F 12.7 °F 76% 30.61 in 10.0 mi ESE 10.4 mph - N/A   Clear
5:58 AM 21.6 °F 7.8 °F 14.4 °F 74% 30.61 in 10.0 mi ESE 16.1 mph - N/A   Clear
6:58 AM 20.5 °F 8.6 °F 14.4 °F 77% 30.60 in 10.0 mi ESE 11.5 mph - N/A   Clear
7:58 AM 19.8 °F 7.1 °F 13.1 °F 75% 30.64 in 7.0 mi ESE 12.7 mph - N/A Fog Patches of Fog
8:58 AM 20.1 °F 8.8 °F 12.9 °F 74% 30.60 in 10.0 mi East 10.4 mph - N/A Fog Patches of Fog
9:58 AM 22.5 °F 14.1 °F 14.2 °F 71% 30.60 in 6.0 mi ESE 6.9 mph - N/A   Haze
10:58 AM 25.9 °F 13.3 °F 15.4 °F 65% 30.57 in 6.0 mi East 16.1 mph - N/A   Haze
11:58 AM 26.2 °F 20.7 °F 17.8 °F 70% 30.55 in 6.0 mi SSE 4.6 mph - N/A   Haze
12:58 PM 31.3 °F 24.7 °F 19.2 °F 61% 30.51 in 6.0 mi SW 6.9 mph - N/A   Haze
1:58 PM 26.8 °F - 18.7 °F 72% 30.47 in 5.0 mi NW 2.3 mph - N/A   Haze
2:58 PM 29.8 °F 23.0 °F 20.5 °F 68% 30.44 in 5.0 mi SW 6.9 mph - N/A   Haze
3:58 PM 25.2 °F - 17.6 °F 73% 30.47 in 5.0 mi Calm Calm - N/A   Haze
4:58 PM 23.2 °F 16.0 °F 16.7 °F 76% 30.44 in 5.0 mi SSE 5.8 mph - N/A   Haze
5:58 PM 20.3 °F 13.8 °F 15.4 °F 81% 30.43 in 5.0 mi SSW 4.6 mph - N/A   Haze
6:58 PM 20.7 °F - 16.2 °F 83% 30.42 in 5.0 mi NNE 2.3 mph - N/A   Haze
7:58 PM 23.2 °F - 16.5 °F 76% 30.40 in 7.0 mi Calm Calm - N/A   Haze
8:58 PM 22.3 °F 17.6 °F 15.8 °F 76% 30.38 in 10.0 mi ESE 3.5 mph - N/A   Clear
9:58 PM 24.6 °F 14.4 °F 16.9 °F 72% 30.34 in 10.0 mi ESE 10.4 mph - N/A   Clear
10:58 PM 24.6 °F 18.8 °F 16.5 °F 71% 30.32 in 10.0 mi SE 4.6 mph - N/A   Scattered Clouds
11:58 PM 22.3 °F 13.9 °F 15.8 °F 76% 30.31 in 10.0 mi East 6.9 mph - N/A   Scattered Clouds